Other Public Products
Issued by NWS Grand Forks, ND

Home | Current Version | Previous Version | Graphics & Text | Print | Product List | Glossary On
Versions: 1 2 3 4 5 6 7 8 9 10 11 12 13 14 15 16 17 18 19 20 21 22 23 24 25 26 27 28 29 30 31 32 33 34 35 36 37 38 39 40 41 42 43 44 45 46 47 48 49 50
000
FPUS83 KFGF 152331
OPUFGF
PRAIRIE TO PINES WEATHER ROUNDUP
NATIONAL WEATHER SERVICE EASTERN NORTH DAKOTA/GRAND FORKS ND
600 PM CDT TUE APR 15 2014

 **SATELLITE DATA USED TO AUGMENT SKY COVER AT AUTOMATED STATIONS**
 *****  WEATHER ACROSS EASTERN NORTH DAKOTA  *****

CITY           SKY/WX    TMP DP  RH WIND       PRES   REMARKS
GRAND FORKS    CLOUDY    30  11  45 SE10      29.97S WCI  21
GRAND FORKS AF PTSUNNY   30  11  46 E13       30.00S WCI  20
GRAND CITY NWS   N/A     32 N/A N/A SE9         N/A  WCI  24
BUXTON           N/A     31  15  50 E10         N/A  WCI  22
DEVILS LAKE    CLOUDY    30  10  43 SE16G23   29.90F WCI  19
FARGO          CLOUDY    33  11  39 SE9       29.98F
WAHPETON ARPT  CLOUDY    34   9  35 SE12      29.98R
$$

 *****  WEATHER ACROSS CENTRAL AND WESTERN NORTH DAKOTA  *****

CITY           SKY/WX    TMP DP  RH WIND       PRES   REMARKS
JAMESTOWN      CLOUDY    32  20  61 E21       29.87S WCI  20
BISMARCK       MOSUNNY   45  20  36 SE22      29.71F
MINOT          CLOUDY    34  19  54 E23G30    29.77S WCI  22
MINOT AFB      CLOUDY    35  20  56 E22       29.77S WCI  23
GARRISON         N/A     41  20  43 SE18G26   29.71F
WILLISTON      CLOUDY    46  26  45 SW25      29.60F
DICKINSON      PTSUNNY   51  22  31 SE17      29.55S
HETTINGER      PTSUNNY   56  22  26 SE14      29.54F
$$

 *****  OTHER OBSERVATIONS NORTHEAST NORTH DAKOTA  *****

CITY           SKY/WX    TMP DP  RH WIND       PRES   REMARKS
WALHALLA         N/A     28  14  54 SE15      30.01S WCI  17
LANGDON        FAIR      28  10  47 SE20      29.94S WCI  15
CAVALIER       FAIR      28  14  54 SE10      30.02S WCI  19
GRAFTON        FAIR      28  14  54 SE8       30.02S WCI  20
CANDO          CLOUDY    32  14  47 SE16G28   29.90F WCI  21
FORT TOTTEN      N/A     31   7  35 SE9       29.95  WCI  23
ROLLA          CLOUDY    28  14  54 SE16      29.89S WCI  17
RUGBY          FAIR      32  18  55 SE17G26   29.86R WCI  21
 ***** THE ABOVE OBSERVATIONS ARE NON NWS ARE NOT QUALITY
        CONTROLLED AND MAY MIS-REPORT RAIN FOR SNOW...
$$

 *****  OTHER OBSERVATIONS SOUTHEAST NORTH DAKOTA *****

CITY           SKY/WX    TMP DP  RH WIND       PRES   REMARKS
COOPERSTOWN    CLOUDY    30  14  51 SE16      29.92S WCI  19
VALLEY CITY    NOT AVBL
OAKES          CLOUDY    36  16  44 E25G32    29.85F
GWINNER        PTCLDY    34  18  51 E21G26    29.90F WCI  22
BUFFALO          N/A     32   8  36 SE17        N/A  WCI  21
WYNDMERE       NOT AVBL
 ***** THE ABOVE OBSERVATIONS ARE NON NWS ARE NOT QUALITY
       CONTROLLED AND MAY MIS-REPORT RAIN FOR SNOW...
$$

  *****  WEATHER ACROSS NORTHERN MINNESOTA  *****

CITY           SKY/WX    TMP DP  RH WIND       PRES   REMARKS
FLAG ISLAND    SUNNY     21   7  53 S5        30.05R WCI  15
WARROAD        SUNNY     25  10  54 E10       30.05S WCI  15
ROSEAU         MOSUNNY   28   7  40 NE3       30.04R
HALLOCK        CLOUDY    30  12  47 CALM      30.03S
THF RVR FALLS  CLOUDY    28   7  40 SE7       30.02S WCI  21
HALSTAD          N/A     33   9  36 E10         N/A  WCI  24
FOSSTON        CLOUDY    30   7  37 NW6       30.00R WCI  24
BAUDETTE       SUNNY     26   1  34 NW8       30.04F WCI  18
WASKISH        MOSUNNY   28   3  34 W3        30.02S
CROOKSTON      CLOUDY    32   7  34 SE6       30.02S
$$
  *****  WEATHER ACROSS CENTRAL AND WEST MINNESOTA  *****

CITY           SKY/WX    TMP DP  RH WIND       PRES   REMARKS
BEMIDJI        PTSUNNY   31  -2  24 E3        29.99S
PARK RAPIDS    PTSUNNY   32   1  26 SE8       29.97F WCI  25
WADENA         PTSUNNY   30   7  37 SE8       29.98F WCI  23
DETROIT LAKES  CLOUDY    32   1  27 SE9       29.98F WCI  24
MOORHEAD       CLOUDY    34   7  32 SE6       29.99F
FERGUS FALLS   CLOUDY    34   0  23 SE9       29.96F
ELBOW LAKE     CLOUDY    32   4  30 S12       29.97F WCI  23
MORRIS MN      PTSUNNY   36   9  32 SE12      29.96F
STAPLES        MOSUNNY   32   1  27 S7        30.00S
WHEATON        CLOUDY    37  14  38 E16       29.97F
$$
  *****  WEATHER ELSEWHERE ACROSS MINNESOTA  *****

CITY           SKY/WX    TMP DP  RH WIND       PRES   REMARKS
DULUTH         SUNNY     31   0  26 W9        30.01S WCI  23
INTRNTL FALLS  SUNNY     28   0  29 CALM      30.03S
ELY            SUNNY     28   0  29 W6        30.01S WCI  22
CLOQUET        MOSUNNY   30  -6  21 W3        30.02S
BRAINERD       MOSUNNY   37  -3  18 CALM      30.01F
HIBBING        SUNNY     32   0  25 W8        30.01R WCI  25
ALEXANDRIA     CLOUDY    33   4  29 SE12      29.98F WCI  24
SAINT CLOUD    MOSUNNY   36   2  23 SW5       30.03S
MINNEAPOLIS    PTSUNNY   35   0  22 CALM      30.05F
$$

  *****  WEATHER ACROSS SOUTH DAKOTA  *****

CITY           SKY/WX    TMP DP  RH WIND       PRES   REMARKS
SIOUX FALLS    PTSUNNY   46  21  37 S22G29    29.86F
BROOKINGS      NOT AVBL
WATERTOWN      PTSUNNY   41  17  38 SE16G22   29.84F
HURON          PTSUNNY   51  22  31 S20G28    29.75F
SISSETON         N/A     35  14  42 SE21      29.91F WCI  24
ABERDEEN       MOSUNNY   44  18  35 SE24      29.79F
MITCHELL       MOSUNNY   53  28  38 S25G36    29.75F
PIERRE         PTSUNNY   65  20  17 S6        29.57F
MOBRIDGE       MOSUNNY   52  21  29 SE18      29.62F
RAPID CITY     CLOUDY    63  20  19 SE3       29.54F
$$

  *****  SOME WEATHER IN NEARBY STATES *****

CITY           SKY/WX    TMP DP  RH WIND       PRES   REMARKS
GLASGOW MT     CLOUDY    59  20  22 W25       29.51R
GREAT FALLS MT CLOUDY    45  32  60 NW15      29.71R
CHEYENNE WY    MOSUNNY   54  15  21 W31G39    29.74F
SCOTTSBLUFF NE SUNNY     66  21  18 W16G28    29.65F
OMAHA NE       PTSUNNY   53  25  33 S22       29.94F
DES MOINES IA  MOSUNNY   47  19  33 S8        30.06F
DAVENPORT IA   SUNNY     40  14  34 W9        30.14F
CHICAGO IL     PTSUNNY   38  16  40 W12       30.14R
EAU CLAIRE WI  SUNNY     36   4  26 VRB5      30.06S
LA CROSSE WI   SUNNY     38  11  32 NW8       30.09S
$$

  *****  SOME NATIONAL WEATHER *****

CITY           SKY/WX    TMP DP  RH WIND       PRES   REMARKS
LA GUARDIA NY  RAIN      47  41  80 NW23G29   29.67R
RALEIGH NC     LGT RAIN  46  43  87 VRB6G20   29.79R FOG
ATLANTA GA     MOSUNNY   47  31  53 NW22G35   29.99R
NEW ORLEANS LA PTSUNNY   59  29  31 N16G23    30.11R
OKLAHOMA CITY  MOSUNNY   65  13  13 S15       30.06F
ALBUQUERQUE NM PTSUNNY   66  11  11 S13G21    29.94F
SALT LAKE CITY CLOUDY    68  12  11 W7        29.79F
LOS ANGELES CA MOSUNNY   61  51  70 W12       29.87F
BOISE ID       MOSUNNY   61  24  24 N18G26    29.94F
SEATTLE WA     CLOUDY    57  31  37 SW15      30.15F
$$

*** WEATHER ACROSS MANITOBA...SASKATCHEWAN AND ONTARIO ***
                ***ONTARIO***

CITY           SKY/WX    TMP DP  RH WIND       PRES   REMARKS
GERALDTON      MOSUNNY   19  -2  38 NW8       29.99R WCI   9
THUNDER BAY    MOSUNNY   28   0  29 NW7       30.03R WCI  21
SIOUX LOOKOUT  MOSUNNY   21  -2  35 NW8       30.03R WCI  12
TORONTO        PTSUNNY   27  14  59 NW20G30   30.00R WCI  13
BIG TROUT LK   PTSUNNY   14   0  52 NW8G17    30.02R WCI   3
PICKLE LAKE    PTSUNNY   21   0  39 NW6       29.97R WCI  14
DRYDEN         SUNNY     25   0  33 W9        30.01F WCI  15
KENORA         PTSUNNY   25  -2  30 N7        30.03F WCI  17
$$
                *** MANITOBA***

CITY           SKY/WX    TMP DP  RH WIND       PRES   REMARKS
BRANDON        CLOUDY    28  16  59 E20       29.95S WCI  15
DAUPHIN        SUNNY     27  10  50 SE20      30.00R WCI  13
ISLAND LAKE    SUNNY     21   3  45 N7        30.09R WCI  13
PILOT MOUND      N/A     30  14  51 SE16        N/A  WCI  19
THE PAS        MOSUNNY   25  -4  28 SE5       30.09R WCI  19
THOMPSON       SUNNY     19   3  49 N9        30.15R WCI   9
WINNIPEG       MOSUNNY   28   9  43 E14       30.06S WCI  17
LYNN LAKE      SUNNY     18   0  45 NE13      30.16R WCI   4
CHURCHILL      MOSUNNY    3  -2  78 NW20      30.23R WCI -18
GILLAM         MOSUNNY   14   0  52 NW12      30.16R WCI   0
$$
                ***SASKATCHEWAN***

CITY           SKY/WX    TMP DP  RH WIND       PRES   REMARKS
ESTEVAN        CLOUDY    36  18  48 SE18G25   29.72R
KINDERSLEY     PTSUNNY   36  25  64 NE23G30   29.76R
LLOYDMINSTER   SNOWSHWR  30  23  74 E10G18    29.87R WCI  21
PRINCE ALBERT  CLOUDY    30  14  51 SE12      29.94R WCI  21
REGINA         CLOUDY    36  18  48 E25G33    29.72R
YORKTON        CLOUDY    27  16  63 E18G29    29.90R WCI  13



USA.gov is the U.S. government's official web portal to all federal, state and local government web resources and services.